Time,TemperatureF,DewpointF,PressureIn,WindDirection,WindDirectionDegrees,WindSpeedMPH,WindSpeedGustMPH,Humidity,HourlyPrecipIn,Conditions,Clouds,dailyrainin,SolarRadiationWatts/m^2,SoftwareType,DateUTC
2013-08-15 00:03:00,65.8,62.2,29.83,WNW,302,1.0,2.0,88,0.00,,,0.00,0.0,meteohub,2013-08-15 07:03:00,
2013-08-15 00:08:00,65.7,62.1,29.83,NNW,332,0.0,4.0,88,0.00,,,0.00,0.0,meteohub,2013-08-15 07:08:00,
2013-08-15 00:13:00,66.0,62.1,29.83,SE,124,0.0,4.0,87,0.00,,,0.00,0.0,meteohub,2013-08-15 07:13:00,
2013-08-15 00:18:00,66.6,62.2,29.83,South,174,0.0,5.0,86,0.00,,,0.00,0.0,meteohub,2013-08-15 07:18:00,
2013-08-15 00:23:00,66.6,62.2,29.83,South,181,0.0,5.0,86,0.00,,,0.00,0.0,meteohub,2013-08-15 07:23:00,
2013-08-15 00:28:00,66.6,62.6,29.83,West,262,0.0,2.0,87,0.00,,,0.00,0.0,meteohub,2013-08-15 07:28:00,
2013-08-15 00:33:00,66.4,62.4,29.83,West,262,0.0,3.0,87,0.00,,,0.00,0.0,meteohub,2013-08-15 07:33:00,
2013-08-15 00:38:00,66.4,62.4,29.83,West,262,0.0,3.0,87,0.00,,,0.00,0.0,meteohub,2013-08-15 07:38:00,
2013-08-15 00:43:00,66.4,62.4,29.83,West,262,0.0,3.0,87,0.00,,,0.00,0.0,meteohub,2013-08-15 07:43:00,
2013-08-15 00:48:00,66.6,62.6,29.83,West,262,0.0,2.0,87,0.00,,,0.00,0.0,meteohub,2013-08-15 07:48:00,
2013-08-15 00:53:00,66.6,63.0,29.84,NW,324,0.0,2.0,88,0.00,,,0.00,0.0,meteohub,2013-08-15 07:53:00,
2013-08-15 00:58:00,66.4,62.8,29.83,NW,324,0.0,2.0,88,0.00,,,0.00,0.0,meteohub,2013-08-15 07:58:00,
2013-08-15 01:03:00,66.6,63.0,29.83,WNW,297,0.0,2.0,88,0.00,,,0.00,0.0,meteohub,2013-08-15 08:03:00,
2013-08-15 01:08:00,66.7,63.7,29.83,WNW,297,0.0,2.0,90,0.00,,,0.00,0.0,meteohub,2013-08-15 08:08:00,
2013-08-15 01:13:00,66.7,63.7,29.83,SSE,158,0.0,2.0,90,0.00,,,0.00,0.0,meteohub,2013-08-15 08:13:00,
2013-08-15 01:18:00,66.6,63.9,29.83,SW,227,0.0,2.0,91,0.00,,,0.00,0.0,meteohub,2013-08-15 08:18:00,
2013-08-15 01:23:00,66.0,63.3,29.83,SW,227,0.0,2.0,91,0.00,,,0.00,0.0,meteohub,2013-08-15 08:23:00,
2013-08-15 01:28:00,65.8,63.1,29.83,SW,227,0.0,2.0,91,0.00,,,0.00,0.0,meteohub,2013-08-15 08:28:00,
2013-08-15 01:33:00,65.8,63.5,29.83,SW,227,0.0,2.0,92,0.00,,,0.00,0.0,meteohub,2013-08-15 08:33:00,
2013-08-15 01:38:00,65.7,63.5,29.83,SW,227,0.0,2.0,93,0.00,,,0.00,0.0,meteohub,2013-08-15 08:38:00,
2013-08-15 01:43:00,65.5,63.7,29.83,SW,227,0.0,2.0,94,0.00,,,0.00,0.0,meteohub,2013-08-15 08:43:00,
2013-08-15 01:48:00,65.1,63.3,29.83,SW,227,0.0,2.0,94,0.00,,,0.00,0.0,meteohub,2013-08-15 08:48:00,
2013-08-15 01:53:00,64.9,63.1,29.83,West,265,0.0,2.0,94,0.00,,,0.00,0.0,meteohub,2013-08-15 08:53:00,
2013-08-15 01:58:00,64.8,63.0,29.83,NW,308,0.0,2.0,94,0.00,,,0.00,0.0,meteohub,2013-08-15 08:58:00,
2013-08-15 02:03:00,64.6,63.1,29.83,NNW,330,0.0,7.0,95,0.00,,,0.00,0.0,meteohub,2013-08-15 09:03:00,
2013-08-15 02:08:00,64.4,63.0,29.83,NNW,330,1.0,7.0,95,0.00,,,0.00,0.0,meteohub,2013-08-15 09:08:00,
2013-08-15 02:13:00,64.2,62.8,29.83,NNW,331,0.0,7.0,95,0.00,,,0.00,0.0,meteohub,2013-08-15 09:13:00,
2013-08-15 02:18:00,64.2,63.1,29.83,NNW,331,0.0,2.0,96,0.00,,,0.00,0.0,meteohub,2013-08-15 09:18:00,
2013-08-15 02:24:00,64.0,62.6,29.83,NNW,331,0.0,2.0,95,0.00,,,0.00,0.0,meteohub,2013-08-15 09:24:00,
2013-08-15 02:29:00,64.0,63.0,29.83,NNW,331,2.0,2.0,96,0.00,,,0.00,0.0,meteohub,2013-08-15 09:29:00,
2013-08-15 02:34:00,64.0,63.0,29.83,NNW,331,2.0,2.0,96,0.00,,,0.00,0.0,meteohub,2013-08-15 09:34:00,
2013-08-15 02:39:00,64.0,63.0,29.82,NNW,331,0.0,2.0,96,0.00,,,0.00,0.0,meteohub,2013-08-15 09:39:00,
2013-08-15 02:44:00,64.0,63.0,29.82,NE,46,0.0,2.0,96,0.00,,,0.00,0.0,meteohub,2013-08-15 09:44:00,
2013-08-15 02:49:00,64.0,63.0,29.82,NE,47,2.0,2.0,96,0.00,,,0.00,0.0,meteohub,2013-08-15 09:49:00,
2013-08-15 02:54:00,63.9,62.8,29.82,NE,47,0.0,3.0,96,0.00,,,0.00,0.0,meteohub,2013-08-15 09:54:00,
2013-08-15 02:59:00,63.9,62.8,29.82,NE,47,0.0,3.0,96,0.00,,,0.00,0.0,meteohub,2013-08-15 09:59:00,
2013-08-15 03:04:00,63.9,62.8,29.83,NE,47,0.0,3.0,96,0.00,,,0.00,0.0,meteohub,2013-08-15 10:04:00,
2013-08-15 03:09:00,63.9,63.0,29.82,NE,47,0.0,2.0,97,0.00,,,0.00,0.0,meteohub,2013-08-15 10:09:00,
2013-08-15 03:14:00,63.9,63.0,29.82,NE,47,0.0,2.0,97,0.00,,,0.00,0.0,meteohub,2013-08-15 10:14:00,
2013-08-15 03:19:00,63.7,62.6,29.82,NE,47,1.0,2.0,96,0.00,,,0.00,0.0,meteohub,2013-08-15 10:19:00,
2013-08-15 03:24:00,63.7,62.6,29.83,NE,47,0.0,2.0,96,0.00,,,0.00,0.0,meteohub,2013-08-15 10:24:00,
2013-08-15 03:29:00,63.7,62.8,29.83,NE,47,1.0,2.0,97,0.00,,,0.00,0.0,meteohub,2013-08-15 10:29:00,
2013-08-15 03:34:00,63.7,62.8,29.83,NE,47,0.0,2.0,97,0.00,,,0.00,0.0,meteohub,2013-08-15 10:34:00,
2013-08-15 03:39:00,63.7,62.8,29.83,NE,47,0.0,2.0,97,0.00,,,0.00,0.0,meteohub,2013-08-15 10:39:00,
2013-08-15 03:44:00,63.7,62.8,29.83,NE,47,0.0,2.0,97,0.00,,,0.00,0.0,meteohub,2013-08-15 10:44:00,
2013-08-15 03:49:00,63.7,62.8,29.83,NE,47,0.0,2.0,97,0.00,,,0.00,0.0,meteohub,2013-08-15 10:49:00,
2013-08-15 03:54:00,63.7,62.8,29.83,NE,47,2.0,2.0,97,0.00,,,0.00,0.0,meteohub,2013-08-15 10:54:00,
2013-08-15 03:59:00,63.5,62.6,29.83,NE,47,2.0,2.0,97,0.00,,,0.00,0.0,meteohub,2013-08-15 10:59:00,
2013-08-15 04:04:00,63.5,62.6,29.83,NE,47,2.0,2.0,97,0.00,,,0.00,0.0,meteohub,2013-08-15 11:04:00,
2013-08-15 04:09:00,63.3,62.4,29.83,NE,47,0.0,2.0,97,0.00,,,0.00,0.0,meteohub,2013-08-15 11:09:00,
2013-08-15 04:14:00,63.5,62.6,29.83,NE,47,1.0,2.0,97,0.00,,,0.00,0.0,meteohub,2013-08-15 11:14:00,
2013-08-15 04:19:00,63.5,62.6,29.83,NE,47,1.0,2.0,97,0.00,,,0.00,0.0,meteohub,2013-08-15 11:19:00,
2013-08-15 04:24:00,63.5,62.6,29.83,NE,47,0.0,2.0,97,0.00,,,0.00,0.0,meteohub,2013-08-15 11:24:00,
2013-08-15 04:29:00,63.5,62.6,29.83,NE,47,0.0,2.0,97,0.00,,,0.00,0.0,meteohub,2013-08-15 11:29:00,
2013-08-15 04:34:00,63.5,62.6,29.83,NE,47,0.0,2.0,97,0.00,,,0.00,0.0,meteohub,2013-08-15 11:34:00,
2013-08-15 04:39:00,63.5,62.6,29.83,NE,47,0.0,3.0,97,0.00,,,0.00,0.0,meteohub,2013-08-15 11:39:00,
2013-08-15 04:44:00,63.7,62.8,29.83,NE,47,0.0,3.0,97,0.00,,,0.00,0.0,meteohub,2013-08-15 11:44:00,
2013-08-15 04:49:00,63.7,62.8,29.83,NE,47,0.0,3.0,97,0.00,,,0.00,0.0,meteohub,2013-08-15 11:49:00,
2013-08-15 04:54:00,63.7,62.8,29.82,NE,47,0.0,1.0,97,0.00,,,0.00,0.0,meteohub,2013-08-15 11:54:00,
2013-08-15 04:59:00,63.7,62.8,29.82,NE,47,0.0,2.0,97,0.00,,,0.00,0.0,meteohub,2013-08-15 11:59:00,
2013-08-15 05:04:00,63.7,62.8,29.82,NE,47,0.0,2.0,97,0.00,,,0.00,0.0,meteohub,2013-08-15 12:04:00,
2013-08-15 05:10:00,63.5,62.6,29.83,NE,47,0.0,2.0,97,0.00,,,0.00,0.0,meteohub,2013-08-15 12:10:00,
2013-08-15 05:15:00,63.5,62.6,29.82,NE,47,0.0,1.0,97,0.00,,,0.00,0.0,meteohub,2013-08-15 12:15:00,
2013-08-15 05:20:00,63.5,62.6,29.83,NE,47,0.0,1.0,97,0.00,,,0.00,0.0,meteohub,2013-08-15 12:20:00,
2013-08-15 05:25:00,63.3,62.4,29.83,NE,47,0.0,1.0,97,0.00,,,0.00,0.0,meteohub,2013-08-15 12:25:00,
2013-08-15 05:30:00,63.5,62.6,29.83,NE,47,0.0,0.0,97,0.00,,,0.00,0.0,meteohub,2013-08-15 12:30:00,
2013-08-15 05:35:00,63.3,62.4,29.83,NE,47,2.0,0.0,97,0.00,,,0.00,0.0,meteohub,2013-08-15 12:35:00,
2013-08-15 05:40:00,63.3,62.4,29.83,NE,47,0.0,1.0,97,0.00,,,0.00,0.0,meteohub,2013-08-15 12:40:00,
2013-08-15 05:45:00,63.3,62.4,29.83,NE,47,1.0,2.0,97,0.00,,,0.00,0.0,meteohub,2013-08-15 12:45:00,
2013-08-15 05:50:00,63.3,62.4,29.83,NE,47,2.0,2.0,97,0.00,,,0.00,0.0,meteohub,2013-08-15 12:50:00,
2013-08-15 05:55:00,63.3,62.4,29.83,NE,47,0.0,2.0,97,0.00,,,0.00,0.0,meteohub,2013-08-15 12:55:00,
2013-08-15 06:00:00,63.5,62.6,29.83,NE,47,0.0,2.0,97,0.00,,,0.00,0.0,meteohub,2013-08-15 13:00:00,
2013-08-15 06:05:00,63.5,62.6,29.83,NE,47,0.0,2.0,97,0.00,,,0.00,0.0,meteohub,2013-08-15 13:05:00,
2013-08-15 06:10:00,63.5,62.6,29.83,NE,47,0.0,2.0,97,0.00,,,0.00,0.0,meteohub,2013-08-15 13:10:00,
2013-08-15 06:15:00,63.5,62.6,29.83,North,355,1.0,2.0,97,0.00,,,0.00,0.0,meteohub,2013-08-15 13:15:00,
2013-08-15 06:20:00,63.5,62.6,29.83,North,355,0.0,3.0,97,0.00,,,0.00,0.0,meteohub,2013-08-15 13:20:00,
2013-08-15 06:25:00,63.5,62.6,29.83,North,355,0.0,3.0,97,0.00,,,0.00,5.0,meteohub,2013-08-15 13:25:00,
2013-08-15 06:30:00,63.3,62.4,29.83,North,355,0.0,2.0,97,0.00,,,0.00,7.0,meteohub,2013-08-15 13:30:00,
2013-08-15 06:35:00,63.3,62.4,29.83,North,355,0.0,1.0,97,0.00,,,0.00,11.0,meteohub,2013-08-15 13:35:00,
2013-08-15 06:40:00,63.3,62.4,29.83,North,355,0.0,2.0,97,0.00,,,0.00,14.0,meteohub,2013-08-15 13:40:00,
2013-08-15 06:45:00,63.1,62.2,29.83,North,355,0.0,2.0,97,0.00,,,0.00,16.0,meteohub,2013-08-15 13:45:00,
2013-08-15 06:50:00,63.0,62.1,29.83,North,355,0.0,2.0,97,0.00,,,0.00,18.0,meteohub,2013-08-15 13:50:00,
2013-08-15 06:55:00,63.0,62.1,29.83,North,355,0.0,1.0,97,0.00,,,0.00,19.0,meteohub,2013-08-15 13:55:00,
2013-08-15 07:00:00,63.1,62.2,29.83,North,355,0.0,2.0,97,0.00,,,0.00,25.0,meteohub,2013-08-15 14:00:00,
2013-08-15 07:05:00,63.1,62.2,29.83,North,355,0.0,2.0,97,0.00,,,0.00,39.0,meteohub,2013-08-15 14:05:00,
2013-08-15 07:10:00,63.1,62.2,29.83,North,355,0.0,2.0,97,0.00,,,0.00,39.0,meteohub,2013-08-15 14:10:00,
2013-08-15 07:15:00,63.1,62.2,29.83,North,355,1.0,1.0,97,0.00,,,0.00,40.0,meteohub,2013-08-15 14:15:00,
2013-08-15 07:20:00,63.3,62.4,29.84,North,355,0.0,1.0,97,0.00,,,0.00,33.0,meteohub,2013-08-15 14:20:00,
2013-08-15 07:25:00,63.3,62.4,29.83,North,355,0.0,1.0,97,0.00,,,0.00,49.0,meteohub,2013-08-15 14:25:00,
2013-08-15 07:30:00,63.5,62.6,29.83,North,355,0.0,1.0,97,0.00,,,0.00,37.0,meteohub,2013-08-15 14:30:00,
2013-08-15 07:35:00,63.7,62.8,29.84,North,355,0.0,1.0,97,0.00,,,0.00,49.0,meteohub,2013-08-15 14:35:00,
2013-08-15 07:40:00,63.5,62.6,29.84,North,355,0.0,0.0,97,0.00,,,0.00,42.0,meteohub,2013-08-15 14:40:00,
2013-08-15 07:45:00,63.9,63.0,29.84,North,355,0.0,0.0,97,0.00,,,0.00,37.0,meteohub,2013-08-15 14:45:00,
2013-08-15 07:51:00,64.0,63.1,29.84,North,355,0.0,0.0,97,0.00,,,0.00,32.0,meteohub,2013-08-15 14:51:00,
2013-08-15 07:56:00,64.0,63.1,29.84,North,355,0.0,0.0,97,0.00,,,0.00,33.0,meteohub,2013-08-15 14:56:00,
2013-08-15 08:01:00,64.0,63.1,29.84,North,355,0.0,0.0,97,0.00,,,0.00,39.0,meteohub,2013-08-15 15:01:00,
2013-08-15 08:06:00,64.2,63.3,29.84,North,355,0.0,0.0,97,0.00,,,0.00,76.0,meteohub,2013-08-15 15:06:00,
2013-08-15 08:11:00,64.2,63.3,29.84,North,355,0.0,0.0,97,0.00,,,0.00,79.0,meteohub,2013-08-15 15:11:00,
2013-08-15 08:16:00,64.4,63.5,29.84,North,355,0.0,0.0,97,0.00,,,0.00,49.0,meteohub,2013-08-15 15:16:00,
2013-08-15 08:21:00,64.8,63.9,29.84,North,355,0.0,0.0,97,0.00,,,0.00,53.0,meteohub,2013-08-15 15:21:00,
2013-08-15 08:26:00,64.8,63.9,29.84,North,355,0.0,1.0,97,0.00,,,0.00,56.0,meteohub,2013-08-15 15:26:00,
2013-08-15 08:31:00,64.8,63.9,29.84,North,355,0.0,1.0,97,0.00,,,0.00,53.0,meteohub,2013-08-15 15:31:00,
2013-08-15 08:36:00,64.8,63.9,29.85,North,355,0.0,0.0,97,0.00,,,0.00,49.0,meteohub,2013-08-15 15:36:00,
2013-08-15 08:41:00,64.8,63.9,29.84,North,355,0.0,0.0,97,0.00,,,0.00,69.0,meteohub,2013-08-15 15:41:00,
2013-08-15 08:46:00,64.8,63.9,29.85,North,355,1.0,0.0,97,0.00,,,0.00,72.0,meteohub,2013-08-15 15:46:00,
2013-08-15 08:51:00,64.9,64.0,29.85,North,355,0.0,2.0,97,0.00,,,0.00,69.0,meteohub,2013-08-15 15:51:00,
2013-08-15 08:56:00,64.9,64.0,29.84,North,355,0.0,2.0,97,0.00,,,0.00,56.0,meteohub,2013-08-15 15:56:00,
2013-08-15 09:02:00,64.8,63.7,29.85,North,355,0.0,1.0,96,0.00,,,0.00,104.0,meteohub,2013-08-15 16:02:00,
2013-08-15 09:07:00,65.1,64.0,29.85,North,355,0.0,1.0,96,0.00,,,0.00,120.0,meteohub,2013-08-15 16:07:00,
2013-08-15 09:12:00,65.1,63.7,29.85,West,260,0.0,1.0,95,0.00,,,0.00,102.0,meteohub,2013-08-15 16:12:00,
2013-08-15 09:14:00,65.1,63.7,29.85,West,260,1.0,1.0,95,0.00,,,0.00,104.0,meteohub,2013-08-15 16:14:00,
2013-08-15 09:22:00,65.5,63.3,29.85,SW,233,1.0,2.0,93,0.00,,,0.00,174.0,meteohub,2013-08-15 16:22:00,
2013-08-15 09:29:00,65.7,63.3,29.85,SW,233,1.0,2.0,92,0.00,,,0.00,116.0,meteohub,2013-08-15 16:29:00,
2013-08-15 09:34:00,65.7,63.3,29.85,South,173,0.0,2.0,92,0.00,,,0.00,158.0,meteohub,2013-08-15 16:34:00,
2013-08-15 09:39:00,65.8,63.5,29.85,South,189,0.0,3.0,92,0.00,,,0.00,100.0,meteohub,2013-08-15 16:39:00,
2013-08-15 09:44:00,65.8,63.1,29.85,SE,143,0.0,3.0,91,0.00,,,0.00,100.0,meteohub,2013-08-15 16:44:00,
2013-08-15 09:49:00,65.8,63.5,29.85,South,184,0.0,3.0,92,0.00,,,0.00,137.0,meteohub,2013-08-15 16:49:00,
2013-08-15 09:54:00,65.8,63.1,29.85,SSW,210,0.0,3.0,91,0.00,,,0.00,197.0,meteohub,2013-08-15 16:54:00,
2013-08-15 09:59:00,66.2,63.5,29.85,SSW,196,0.0,3.0,91,0.00,,,0.00,120.0,meteohub,2013-08-15 16:59:00,
2013-08-15 10:04:00,66.2,63.1,29.85,South,175,0.0,5.0,90,0.00,,,0.00,167.0,meteohub,2013-08-15 17:04:00,
2013-08-15 10:09:00,66.2,63.1,29.85,South,178,0.0,5.0,90,0.00,,,0.00,149.0,meteohub,2013-08-15 17:09:00,
2013-08-15 10:14:00,66.7,64.0,29.85,South,177,2.0,5.0,91,0.00,,,0.00,236.0,meteohub,2013-08-15 17:14:00,
2013-08-15 10:19:00,66.7,63.3,29.86,SSE,155,2.0,5.0,89,0.00,,,0.00,207.0,meteohub,2013-08-15 17:19:00,
2013-08-15 10:24:00,66.6,63.1,29.86,SE,128,2.0,4.0,89,0.00,,,0.00,155.0,meteohub,2013-08-15 17:24:00,
2013-08-15 10:29:00,66.4,63.0,29.86,SE,137,4.0,6.0,89,0.00,,,0.00,227.0,meteohub,2013-08-15 17:29:00,
2013-08-15 10:35:00,66.4,63.3,29.85,ENE,78,1.0,6.0,90,0.00,,,0.00,135.0,meteohub,2013-08-15 17:35:00,
2013-08-15 10:40:00,66.4,63.3,29.86,South,188,0.0,5.0,90,0.00,,,0.00,197.0,meteohub,2013-08-15 17:40:00,
2013-08-15 10:45:00,66.4,63.3,29.86,South,175,1.0,5.0,90,0.00,,,0.00,185.0,meteohub,2013-08-15 17:45:00,
2013-08-15 10:50:00,66.6,63.5,29.86,SSE,164,0.0,5.0,90,0.00,,,0.00,237.0,meteohub,2013-08-15 17:50:00,
2013-08-15 10:55:00,66.6,63.5,29.86,SSE,148,0.0,4.0,90,0.00,,,0.00,181.0,meteohub,2013-08-15 17:55:00,
2013-08-15 11:00:00,66.7,63.7,29.86,SSE,151,0.0,6.0,90,0.00,,,0.00,195.0,meteohub,2013-08-15 18:00:00,
2013-08-15 11:05:00,66.7,64.0,29.86,ENE,75,0.0,6.0,91,0.00,,,0.00,181.0,meteohub,2013-08-15 18:05:00,
2013-08-15 11:10:00,66.7,63.7,29.86,South,174,3.0,6.0,90,0.00,,,0.00,264.0,meteohub,2013-08-15 18:10:00,
2013-08-15 11:15:00,66.9,63.9,29.86,SSE,167,0.0,5.0,90,0.00,,,0.00,244.0,meteohub,2013-08-15 18:15:00,
2013-08-15 11:20:00,66.9,63.5,29.86,SSE,148,0.0,5.0,89,0.00,,,0.00,243.0,meteohub,2013-08-15 18:20:00,
2013-08-15 11:26:00,66.9,63.9,29.86,SSE,156,1.0,5.0,90,0.00,,,0.00,288.0,meteohub,2013-08-15 18:26:00,
2013-08-15 11:31:00,66.9,63.5,29.86,ESE,111,2.0,6.0,89,0.00,,,0.00,190.0,meteohub,2013-08-15 18:31:00,
2013-08-15 11:36:00,66.9,63.5,29.86,South,178,3.0,7.0,89,0.00,,,0.00,178.0,meteohub,2013-08-15 18:36:00,
2013-08-15 11:41:00,66.7,63.3,29.86,SE,142,0.0,7.0,89,0.00,,,0.00,155.0,meteohub,2013-08-15 18:41:00,
2013-08-15 11:46:00,66.7,63.3,29.86,SSE,159,0.0,7.0,89,0.00,,,0.00,185.0,meteohub,2013-08-15 18:46:00,
2013-08-15 11:51:00,66.9,63.3,29.86,SSE,159,0.0,7.0,88,0.00,,,0.00,156.0,meteohub,2013-08-15 18:51:00,
2013-08-15 11:56:00,66.9,63.3,29.86,SE,142,5.0,5.0,88,0.00,,,0.00,195.0,meteohub,2013-08-15 18:56:00,
2013-08-15 12:02:00,67.1,63.5,29.86,SSE,163,1.0,5.0,88,0.00,,,0.00,190.0,meteohub,2013-08-15 19:02:00,
2013-08-15 12:07:00,67.1,63.5,29.86,SSE,159,0.0,5.0,88,0.00,,,0.00,237.0,meteohub,2013-08-15 19:07:00,
2013-08-15 12:12:00,67.3,63.7,29.86,SE,146,0.0,5.0,88,0.00,,,0.00,262.0,meteohub,2013-08-15 19:12:00,
2013-08-15 12:17:00,67.5,63.9,29.86,South,175,3.0,4.0,88,0.00,,,0.00,302.0,meteohub,2013-08-15 19:17:00,
2013-08-15 12:22:00,67.3,63.7,29.86,ESE,121,0.0,6.0,88,0.00,,,0.00,295.0,meteohub,2013-08-15 19:22:00,
2013-08-15 12:27:00,67.3,63.9,29.86,SSE,166,1.0,6.0,89,0.00,,,0.00,316.0,meteohub,2013-08-15 19:27:00,
2013-08-15 12:32:00,67.5,63.9,29.86,South,174,2.0,6.0,88,0.00,,,0.00,348.0,meteohub,2013-08-15 19:32:00,
2013-08-15 12:37:00,67.6,64.0,29.86,SE,140,1.0,5.0,88,0.00,,,0.00,329.0,meteohub,2013-08-15 19:37:00,
2013-08-15 12:42:00,67.5,63.5,29.86,SSE,151,2.0,4.0,87,0.00,,,0.00,288.0,meteohub,2013-08-15 19:42:00,
2013-08-15 12:47:00,67.5,64.0,29.86,North,350,1.0,5.0,89,0.00,,,0.00,260.0,meteohub,2013-08-15 19:47:00,
2013-08-15 12:52:00,67.3,63.7,29.86,SSW,192,2.0,5.0,88,0.00,,,0.00,269.0,meteohub,2013-08-15 19:52:00,
2013-08-15 12:58:00,67.5,63.9,29.86,SSE,157,0.0,5.0,88,0.00,,,0.00,334.0,meteohub,2013-08-15 19:58:00,
2013-08-15 13:03:00,67.8,63.5,29.86,South,178,0.0,5.0,86,0.00,,,0.00,330.0,meteohub,2013-08-15 20:03:00,
2013-08-15 13:08:00,68.4,64.4,29.86,SSE,156,2.0,5.0,87,0.00,,,0.00,216.0,meteohub,2013-08-15 20:08:00,
2013-08-15 13:13:00,68.2,63.9,29.86,SE,139,1.0,5.0,86,0.00,,,0.00,193.0,meteohub,2013-08-15 20:13:00,
2013-08-15 13:18:00,68.2,64.2,29.86,SSE,163,0.0,4.0,87,0.00,,,0.00,211.0,meteohub,2013-08-15 20:18:00,
2013-08-15 13:24:00,68.2,64.4,29.86,South,182,1.0,4.0,88,0.00,,,0.00,269.0,meteohub,2013-08-15 20:24:00,
2013-08-15 13:29:00,68.5,64.6,29.86,WSW,254,1.0,4.0,87,0.00,,,0.00,265.0,meteohub,2013-08-15 20:29:00,
2013-08-15 13:34:00,69.1,65.1,29.86,WSW,254,0.0,3.0,87,0.00,,,0.00,229.0,meteohub,2013-08-15 20:34:00,
2013-08-15 13:39:00,69.4,65.1,29.86,East,90,0.0,3.0,86,0.00,,,0.00,297.0,meteohub,2013-08-15 20:39:00,
2013-08-15 13:44:00,69.6,64.6,29.86,SSE,167,0.0,3.0,84,0.00,,,0.00,236.0,meteohub,2013-08-15 20:44:00,
2013-08-15 13:49:00,69.6,64.6,29.86,SSW,209,1.0,3.0,84,0.00,,,0.00,190.0,meteohub,2013-08-15 20:49:00,
2013-08-15 13:54:00,69.4,64.0,29.86,SW,224,1.0,3.0,83,0.00,,,0.00,211.0,meteohub,2013-08-15 20:54:00,
2013-08-15 13:59:00,69.3,64.6,29.86,SE,144,2.0,5.0,85,0.00,,,0.00,163.0,meteohub,2013-08-15 20:59:00,
2013-08-15 14:05:00,69.1,64.4,29.86,SW,218,2.0,7.0,85,0.00,,,0.00,130.0,meteohub,2013-08-15 21:05:00,
2013-08-15 14:10:00,69.1,64.4,29.86,SSE,164,2.0,5.0,85,0.00,,,0.00,192.0,meteohub,2013-08-15 21:10:00,
2013-08-15 14:15:00,69.1,64.0,29.86,SE,137,0.0,7.0,84,0.00,,,0.00,192.0,meteohub,2013-08-15 21:15:00,
2013-08-15 14:20:00,69.3,63.9,29.87,SSW,209,3.0,7.0,83,0.00,,,0.00,176.0,meteohub,2013-08-15 21:20:00,
2013-08-15 14:25:00,69.4,63.7,29.87,SSE,164,0.0,6.0,82,0.00,,,0.00,199.0,meteohub,2013-08-15 21:25:00,
2013-08-15 14:30:00,69.6,63.9,29.87,SSE,153,3.0,6.0,82,0.00,,,0.00,186.0,meteohub,2013-08-15 21:30:00,
2013-08-15 14:36:00,69.6,63.5,29.87,WSW,243,0.0,6.0,81,0.00,,,0.00,186.0,meteohub,2013-08-15 21:36:00,
2013-08-15 14:41:00,69.8,64.0,29.87,SSW,200,6.0,6.0,82,0.00,,,0.00,176.0,meteohub,2013-08-15 21:41:00,
2013-08-15 14:46:00,69.6,63.5,29.87,South,185,0.0,6.0,81,0.00,,,0.00,139.0,meteohub,2013-08-15 21:46:00,
2013-08-15 14:51:00,69.6,63.9,29.87,WSW,249,1.0,6.0,82,0.00,,,0.00,190.0,meteohub,2013-08-15 21:51:00,
2013-08-15 14:56:00,69.6,63.9,29.87,SW,234,0.0,6.0,82,0.00,,,0.00,204.0,meteohub,2013-08-15 21:56:00,
2013-08-15 15:01:00,69.8,63.7,29.87,SW,219,0.0,5.0,81,0.00,,,0.00,197.0,meteohub,2013-08-15 22:01:00,
2013-08-15 15:07:00,70.2,64.4,29.88,WSW,246,2.0,4.0,82,0.00,,,0.00,181.0,meteohub,2013-08-15 22:07:00,
2013-08-15 15:12:00,70.2,64.0,29.88,SSW,205,0.0,4.0,81,0.00,,,0.00,221.0,meteohub,2013-08-15 22:12:00,
2013-08-15 15:17:00,70.3,63.9,29.88,South,175,1.0,4.0,80,0.00,,,0.00,262.0,meteohub,2013-08-15 22:17:00,
2013-08-15 15:22:00,70.5,63.3,29.88,South,186,0.0,4.0,78,0.00,,,0.00,230.0,meteohub,2013-08-15 22:22:00,
2013-08-15 15:27:00,70.9,63.7,29.88,South,169,1.0,3.0,78,0.00,,,0.00,243.0,meteohub,2013-08-15 22:27:00,
2013-08-15 15:32:00,70.9,64.0,29.88,SSE,161,2.0,3.0,79,0.00,,,0.00,258.0,meteohub,2013-08-15 22:32:00,
2013-08-15 15:37:00,70.7,64.6,29.88,WSW,254,3.0,6.0,81,0.00,,,0.00,227.0,meteohub,2013-08-15 22:37:00,
2013-08-15 15:42:00,70.9,64.0,29.87,SW,228,1.0,6.0,79,0.00,,,0.00,253.0,meteohub,2013-08-15 22:42:00,
2013-08-15 15:47:00,71.1,64.2,29.87,SW,228,0.0,6.0,79,0.00,,,0.00,229.0,meteohub,2013-08-15 22:47:00,
2013-08-15 15:52:00,71.1,64.6,29.87,SSE,149,0.0,5.0,80,0.00,,,0.00,237.0,meteohub,2013-08-15 22:52:00,
2013-08-15 15:57:00,70.9,64.4,29.87,South,184,1.0,3.0,80,0.00,,,0.00,223.0,meteohub,2013-08-15 22:57:00,
2013-08-15 16:02:00,70.5,64.4,29.87,SSE,157,1.0,4.0,81,0.00,,,0.00,190.0,meteohub,2013-08-15 23:02:00,
2013-08-15 16:07:00,70.3,65.3,29.87,SE,146,0.0,6.0,84,0.00,,,0.00,227.0,meteohub,2013-08-15 23:07:00,
2013-08-15 16:12:00,70.2,65.5,29.87,SE,146,0.0,6.0,85,0.00,,,0.00,236.0,meteohub,2013-08-15 23:12:00,
2013-08-15 16:17:00,70.0,65.7,29.87,SSE,155,0.0,4.0,86,0.00,,,0.00,232.0,meteohub,2013-08-15 23:17:00,
2013-08-15 16:22:00,69.6,65.7,29.86,SSE,163,1.0,6.0,87,0.00,,,0.00,207.0,meteohub,2013-08-15 23:22:00,
2013-08-15 16:27:00,69.6,65.7,29.86,SSE,156,0.0,6.0,87,0.00,,,0.00,192.0,meteohub,2013-08-15 23:27:00,
2013-08-15 16:32:00,70.2,66.4,29.86,ESE,123,0.0,5.0,88,0.00,,,0.00,225.0,meteohub,2013-08-15 23:32:00,
2013-08-15 16:37:00,70.5,65.5,29.86,WNW,282,0.0,5.0,84,0.00,,,0.00,223.0,meteohub,2013-08-15 23:37:00,
2013-08-15 16:42:00,70.7,65.3,29.86,South,180,1.0,4.0,83,0.00,,,0.00,272.0,meteohub,2013-08-15 23:42:00,
2013-08-15 16:47:00,71.1,64.9,29.86,ESE,119,0.0,8.0,81,0.00,,,0.00,292.0,meteohub,2013-08-15 23:47:00,
2013-08-15 16:52:00,71.2,65.1,29.86,SE,144,0.0,8.0,81,0.00,,,0.00,290.0,meteohub,2013-08-15 23:52:00,
2013-08-15 16:57:00,71.4,64.9,29.86,East,82,0.0,8.0,80,0.00,,,0.00,311.0,meteohub,2013-08-15 23:57:00,
2013-08-15 17:02:00,72.1,65.3,29.86,South,169,5.0,7.0,79,0.00,,,0.00,439.0,meteohub,2013-08-16 00:02:00,
2013-08-15 17:07:00,72.7,65.1,29.86,WSW,243,2.0,7.0,77,0.00,,,0.00,536.0,meteohub,2013-08-16 00:07:00,
2013-08-15 17:12:00,72.3,64.8,29.86,South,190,2.0,7.0,77,0.00,,,0.00,239.0,meteohub,2013-08-16 00:12:00,
2013-08-15 17:17:00,72.5,64.9,29.86,SSW,203,1.0,7.0,77,0.00,,,0.00,185.0,meteohub,2013-08-16 00:17:00,
2013-08-15 17:22:00,72.1,64.9,29.86,South,186,3.0,7.0,78,0.00,,,0.00,237.0,meteohub,2013-08-16 00:22:00,
2013-08-15 17:27:00,71.8,64.2,29.86,South,185,1.0,5.0,77,0.00,,,0.00,229.0,meteohub,2013-08-16 00:27:00,
2013-08-15 17:32:00,71.8,64.6,29.86,SSE,166,0.0,6.0,78,0.00,,,0.00,452.0,meteohub,2013-08-16 00:32:00,
2013-08-15 17:37:00,72.0,64.8,29.86,WSW,246,1.0,6.0,78,0.00,,,0.00,522.0,meteohub,2013-08-16 00:37:00,
2013-08-15 17:42:00,71.8,64.6,29.86,SW,230,1.0,6.0,78,0.00,,,0.00,309.0,meteohub,2013-08-16 00:42:00,
2013-08-15 17:47:00,71.4,63.9,29.86,South,171,1.0,6.0,77,0.00,,,0.00,176.0,meteohub,2013-08-16 00:47:00,
2013-08-15 17:52:00,71.2,63.7,29.86,SW,233,0.0,5.0,77,0.00,,,0.00,163.0,meteohub,2013-08-16 00:52:00,
2013-08-15 17:57:00,71.1,63.9,29.86,South,171,4.0,6.0,78,0.00,,,0.00,142.0,meteohub,2013-08-16 00:57:00,
2013-08-15 18:02:00,71.1,63.9,29.86,SSW,204,1.0,8.0,78,0.00,,,0.00,248.0,meteohub,2013-08-16 01:02:00,
2013-08-15 18:07:00,71.2,63.7,29.86,SW,232,3.0,8.0,77,0.00,,,0.00,206.0,meteohub,2013-08-16 01:07:00,
2013-08-15 18:12:00,71.4,63.9,29.85,South,178,2.0,8.0,77,0.00,,,0.00,185.0,meteohub,2013-08-16 01:12:00,
2013-08-15 18:18:00,71.8,63.9,29.85,South,183,1.0,5.0,76,0.00,,,0.00,121.0,meteohub,2013-08-16 01:18:00,
2013-08-15 18:23:00,71.4,63.5,29.85,SSE,148,1.0,7.0,76,0.00,,,0.00,93.0,meteohub,2013-08-16 01:23:00,
2013-08-15 18:28:00,71.2,63.3,29.85,SSW,198,2.0,7.0,76,0.00,,,0.00,76.0,meteohub,2013-08-16 01:28:00,
2013-08-15 18:35:00,70.9,63.3,29.86,SW,234,1.0,6.0,77,0.00,,,0.00,79.0,meteohub,2013-08-16 01:35:00,
2013-08-15 18:37:00,70.7,63.1,29.86,SE,146,2.0,6.0,77,0.00,,,0.00,142.0,meteohub,2013-08-16 01:37:00,
2013-08-15 18:42:00,70.9,63.7,29.85,SSW,202,2.0,6.0,78,0.00,,,0.00,77.0,meteohub,2013-08-16 01:42:00,
2013-08-15 18:52:00,70.9,63.3,29.85,WSW,252,3.0,4.0,77,0.00,,,0.00,81.0,meteohub,2013-08-16 01:52:00,
2013-08-15 18:57:00,70.5,63.0,29.85,SSE,148,0.0,4.0,77,0.00,,,0.00,62.0,meteohub,2013-08-16 01:57:00,
2013-08-15 19:02:00,70.5,63.3,29.85,South,190,0.0,4.0,78,0.00,,,0.00,76.0,meteohub,2013-08-16 02:02:00,
2013-08-15 19:07:00,70.3,63.1,29.85,SSW,202,2.0,4.0,78,0.00,,,0.00,69.0,meteohub,2013-08-16 02:07:00,
2013-08-15 19:12:00,70.2,63.3,29.86,South,183,1.0,4.0,79,0.00,,,0.00,62.0,meteohub,2013-08-16 02:12:00,
2013-08-15 19:17:00,70.0,63.1,29.86,SSW,205,2.0,4.0,79,0.00,,,0.00,58.0,meteohub,2013-08-16 02:17:00,
2013-08-15 19:22:00,69.6,63.5,29.86,SE,140,0.0,6.0,81,0.00,,,0.00,53.0,meteohub,2013-08-16 02:22:00,
2013-08-15 19:27:00,69.4,63.3,29.86,South,177,0.0,6.0,81,0.00,,,0.00,42.0,meteohub,2013-08-16 02:27:00,
2013-08-15 19:31:00,69.3,63.1,29.85,SSW,206,2.0,7.0,81,0.00,,,0.00,37.0,meteohub,2013-08-16 02:31:00,
2013-08-15 19:37:00,69.3,63.1,29.86,SSE,163,0.0,7.0,81,0.00,,,0.00,32.0,meteohub,2013-08-16 02:37:00,
2013-08-15 19:42:00,69.1,63.0,29.86,SW,219,0.0,6.0,81,0.00,,,0.00,26.0,meteohub,2013-08-16 02:42:00,
2013-08-15 19:47:00,69.1,63.0,29.86,SW,223,0.0,5.0,81,0.00,,,0.00,18.0,meteohub,2013-08-16 02:47:00,
2013-08-15 19:52:00,68.9,63.1,29.86,SW,223,0.0,4.0,82,0.00,,,0.00,12.0,meteohub,2013-08-16 02:52:00,
2013-08-15 19:57:00,68.7,63.3,29.86,SW,223,0.0,2.0,83,0.00,,,0.00,12.0,meteohub,2013-08-16 02:57:00,
2013-08-15 20:02:00,68.7,63.7,29.86,SW,223,0.0,2.0,84,0.00,,,0.00,11.0,meteohub,2013-08-16 03:02:00,
2013-08-15 20:07:00,68.4,63.3,29.86,SW,223,0.0,0.0,84,0.00,,,0.00,9.0,meteohub,2013-08-16 03:07:00,
2013-08-15 20:12:00,68.2,63.5,29.86,NNW,331,0.0,1.0,85,0.00,,,0.00,5.0,meteohub,2013-08-16 03:12:00,
2013-08-15 20:17:00,67.6,63.0,29.86,NNW,331,0.0,2.0,85,0.00,,,0.00,0.0,meteohub,2013-08-16 03:17:00,
2013-08-15 20:22:00,67.5,63.1,29.86,NNW,331,2.0,2.0,86,0.00,,,0.00,0.0,meteohub,2013-08-16 03:22:00,
2013-08-15 20:27:00,67.3,63.0,29.86,NNW,331,0.0,2.0,86,0.00,,,0.00,0.0,meteohub,2013-08-16 03:27:00,
2013-08-15 20:32:00,66.9,63.0,29.87,NNW,331,1.0,2.0,87,0.00,,,0.00,0.0,meteohub,2013-08-16 03:32:00,
2013-08-15 20:37:00,66.7,62.8,29.87,NNW,331,1.0,2.0,87,0.00,,,0.00,0.0,meteohub,2013-08-16 03:37:00,
2013-08-15 20:42:00,66.6,62.6,29.87,NNW,331,0.0,2.0,87,0.00,,,0.00,0.0,meteohub,2013-08-16 03:42:00,
2013-08-15 20:47:00,66.4,62.4,29.87,NNW,331,0.0,3.0,87,0.00,,,0.00,0.0,meteohub,2013-08-16 03:47:00,
2013-08-15 20:52:00,66.4,62.4,29.87,NNW,331,0.0,3.0,87,0.00,,,0.00,0.0,meteohub,2013-08-16 03:52:00,
2013-08-15 20:57:00,66.2,62.2,29.87,NNW,331,0.0,3.0,87,0.00,,,0.00,0.0,meteohub,2013-08-16 03:57:00,
2013-08-15 21:01:00,66.0,62.1,29.87,NNW,331,0.0,2.0,87,0.00,,,0.00,0.0,meteohub,2013-08-16 04:01:00,
2013-08-15 21:06:00,66.0,62.4,29.88,NNW,331,1.0,2.0,88,0.00,,,0.00,0.0,meteohub,2013-08-16 04:06:00,
2013-08-15 21:11:00,65.8,62.2,29.88,NNW,331,0.0,2.0,88,0.00,,,0.00,0.0,meteohub,2013-08-16 04:11:00,
2013-08-15 21:16:00,66.2,63.1,29.88,WNW,285,1.0,3.0,90,0.00,,,0.00,0.0,meteohub,2013-08-16 04:16:00,
2013-08-15 21:21:00,66.6,63.5,29.88,NNE,14,1.0,5.0,90,0.00,,,0.00,0.0,meteohub,2013-08-16 04:21:00,
2013-08-15 21:26:00,66.6,63.5,29.88,SE,144,0.0,5.0,90,0.00,,,0.00,0.0,meteohub,2013-08-16 04:26:00,
2013-08-15 21:32:00,66.6,63.5,29.88,NE,38,2.0,5.0,90,0.00,,,0.00,0.0,meteohub,2013-08-16 04:32:00,
2013-08-15 21:37:00,66.4,63.3,29.88,NE,38,0.0,4.0,90,0.00,,,0.00,0.0,meteohub,2013-08-16 04:37:00,
2013-08-15 21:42:00,66.4,63.3,29.88,NE,38,0.0,3.0,90,0.00,,,0.00,0.0,meteohub,2013-08-16 04:42:00,
2013-08-15 21:47:00,66.4,63.0,29.88,NE,56,0.0,3.0,89,0.00,,,0.00,0.0,meteohub,2013-08-16 04:47:00,
2013-08-15 21:52:00,66.6,62.2,29.88,NE,56,0.0,3.0,86,0.00,,,0.00,0.0,meteohub,2013-08-16 04:52:00,
2013-08-15 21:57:00,66.7,62.1,29.88,NE,56,0.0,3.0,85,0.00,,,0.00,0.0,meteohub,2013-08-16 04:57:00,
2013-08-15 22:02:00,66.7,62.8,29.88,NE,56,0.0,3.0,87,0.00,,,0.00,0.0,meteohub,2013-08-16 05:02:00,
2013-08-15 22:07:00,66.2,62.6,29.88,NE,56,0.0,2.0,88,0.00,,,0.00,0.0,meteohub,2013-08-16 05:07:00,
2013-08-15 22:12:00,65.8,62.4,29.88,NE,56,0.0,2.0,89,0.00,,,0.00,0.0,meteohub,2013-08-16 05:12:00,
2013-08-15 22:19:00,65.7,62.2,29.88,NE,56,0.0,2.0,89,0.00,,,0.00,0.0,meteohub,2013-08-16 05:19:00,
2013-08-15 22:25:00,65.5,62.2,29.88,NE,56,0.0,2.0,89,0.00,,,0.00,0.0,meteohub,2013-08-16 05:25:00,
2013-08-15 22:30:00,65.3,62.1,29.88,NE,56,0.0,2.0,89,0.00,,,0.00,0.0,meteohub,2013-08-16 05:30:00,
2013-08-15 22:35:00,65.1,61.9,29.88,NE,56,0.0,1.0,89,0.00,,,0.00,0.0,meteohub,2013-08-16 05:35:00,
2013-08-15 22:40:00,65.1,61.9,29.88,NE,56,2.0,0.0,89,0.00,,,0.00,0.0,meteohub,2013-08-16 05:40:00,
2013-08-15 22:45:00,65.3,62.1,29.88,NNE,21,1.0,2.0,89,0.00,,,0.00,0.0,meteohub,2013-08-16 05:45:00,
2013-08-15 22:50:00,65.5,62.4,29.88,NNE,21,0.0,3.0,90,0.00,,,0.00,0.0,meteohub,2013-08-16 05:50:00,
2013-08-15 22:55:00,65.7,62.6,29.88,NNE,21,0.0,3.0,90,0.00,,,0.00,0.0,meteohub,2013-08-16 05:55:00,
2013-08-15 23:00:00,65.7,62.2,29.88,NNE,25,0.0,3.0,89,0.00,,,0.00,0.0,meteohub,2013-08-16 06:00:00,
2013-08-15 23:05:00,65.8,62.4,29.88,NW,304,0.0,2.0,89,0.00,,,0.00,0.0,meteohub,2013-08-16 06:05:00,
2013-08-15 23:10:00,65.8,62.4,29.88,West,275,1.0,2.0,89,0.00,,,0.00,0.0,meteohub,2013-08-16 06:10:00,
2013-08-15 23:15:00,66.0,62.4,29.88,SSE,167,0.0,3.0,88,0.00,,,0.00,0.0,meteohub,2013-08-16 06:15:00,
2013-08-15 23:20:00,66.0,62.6,29.88,SSE,167,0.0,3.0,89,0.00,,,0.00,0.0,meteohub,2013-08-16 06:20:00,
2013-08-15 23:25:00,66.0,62.6,29.88,South,170,0.0,3.0,89,0.00,,,0.00,0.0,meteohub,2013-08-16 06:25:00,
2013-08-15 23:30:00,66.0,62.6,29.88,South,170,0.0,3.0,89,0.00,,,0.00,0.0,meteohub,2013-08-16 06:30:00,
2013-08-15 23:35:00,65.8,62.4,29.88,South,170,0.0,1.0,89,0.00,,,0.00,0.0,meteohub,2013-08-16 06:35:00,
2013-08-15 23:40:00,65.8,62.4,29.88,South,170,0.0,1.0,89,0.00,,,0.00,0.0,meteohub,2013-08-16 06:40:00,
2013-08-15 23:45:00,65.8,62.4,29.88,South,170,0.0,1.0,89,0.00,,,0.00,0.0,meteohub,2013-08-16 06:45:00,
2013-08-15 23:50:00,65.7,62.2,29.88,ESE,103,0.0,2.0,89,0.00,,,0.00,0.0,meteohub,2013-08-16 06:50:00,
2013-08-15 23:55:00,65.7,62.2,29.88,ESE,103,0.0,2.0,89,0.00,,,0.00,0.0,meteohub,2013-08-16 06:55:00,